Regional Weather Roundup
Issued by NWS

Home | Current Version | Previous Version | Text Only | Print | Product List | Glossary Off
Versions: 1 2 3 4 5 6 7 8 9 10 11 12 13 14 15 16 17 18 19 20 21 22 23 24 25 26 27 28 29 30 31 32 33 34 35 36 37 38 39 40 41 42 43 44 45 46 47 48 49 50

000
ASUS43 KMKX 251600
RWRWI

WISCONSIN REGIONAL WEATHER ROUNDUP
NATIONAL WEATHER SERVICE MILWAUKEE/SULLIVAN WI
1100 AM CDT SUN JUN 25 2017

NOTE: "FAIR" INDICATES FEW OR NO CLOUDS BELOW 12,000 FEET WITH NO
SIGNIFICANT WEATHER AND/OR OBSTRUCTIONS TO VISIBILITY.

WIZ001-002-006>008-014>016-023>028-251700-
NORTHWEST WISCONSIN

CITY           SKY/WX    TMP DP  RH WIND       PRES   REMARKS
SUPERIOR ARPT  NOT AVBL
ASHLAND        CLOUDY    57  55  93 CALM      30.04S
HAYWARD        LGT RAIN  56  52  86 VRB3      30.05S FOG
SIREN          RAIN      55  52  88 NW14G20   30.08R
CUMBERLAND     CLOUDY    55  52  88 W8        30.08S FOG
RICE LAKE      CLOUDY    59  51  74 W9G16     30.09S
CHETEK         CLOUDY    58  52  78 W9G16     30.08S
LADYSMITH      CLOUDY    57  52  82 W8        30.08S
EAU CLAIRE     NOT AVBL
MENOMONIE      CLOUDY    59  51  74 W10       30.11R
NEW RICHMOND   DRIZZLE   55  52  89 W9        30.12R
OSCEOLA        CLOUDY    57  51  79 W12G18    30.14S
$$

WIZ003>005-009-010-017-018-251700-
NORTH CENTRAL WISCONSIN

CITY           SKY/WX    TMP DP  RH WIND       PRES   REMARKS
MANITOWISH WTR CLOUDY    58  53  84 W3        30.03R
ARBOR VITAE    CLOUDY    57  51  82 W6        30.03R
WOODRUFF       CLOUDY    57  51  82 W6        30.03R
RHINELANDER    CLOUDY    58  52  80 W7        30.04R
EAGLE RIVER    PTSUNNY   58  49  72 NW5       30.02S
LAND O LAKES   PTSUNNY   58  50  74 NW5       30.04S
PHILLIPS       CLOUDY    55  52  91 W7        30.04S
TOMAHAWK       NOT AVBL
MEDFORD        CLOUDY    54  50  86 W8        30.06R
MERRILL        CLOUDY    56  51  83 NW10      30.05S
$$

WIZ029-030-035-036-043>047-251700-
CENTRAL WISCONSIN

CITY           SKY/WX    TMP DP  RH WIND       PRES   REMARKS
WAUSAU         CLOUDY    58  50  75 NW9       30.04S
MOSINEE        CLOUDY    57  52  82 W13       30.07S
MARSHFIELD     CLOUDY    57  49  74 W12       30.07S
STEVENS POINT  CLOUDY    55  49  82 W12       30.07R
WAUPACA        MOSUNNY   64  53  67 W14G21    30.05R
WAUTOMA        CLOUDY    60  50  69 W13G23    30.08R
WISC RAPIDS    CLOUDY    57  50  77 NW10      30.10R
CAMP DOUGLAS   NOT AVBL
$$

WIZ011>013-019>022-031-037>040-048>050-251700-
NORTHEAST WISCONSIN

CITY           SKY/WX    TMP DP  RH WIND       PRES   REMARKS
ANTIGO         CLOUDY    58  52  79 NW8       30.04R
SHAWANO        CLOUDY    65  53  65 W6        30.01S
OCONTO         CLOUDY    63  52  67 W9        29.99F
STURGEON BAY     N/A     61  52  72 W10         N/A
GREEN BAY      CLOUDY    66  53  63 NW10      30.02R
MANITOWOC      NOT AVBL
APPLETON       PTSUNNY   63  48  59 W14       30.02S
CLINTONVILLE   CLOUDY    64  50  59 NW14G22   30.03R
OSHKOSH        MOSUNNY   64  51  62 W16       30.03S
$$

WIZ032>034-041-042-053>061-251700-
SOUTHWEST WISCONSIN

CITY           SKY/WX    TMP DP  RH WIND       PRES   REMARKS
LA CROSSE      CLOUDY    65  52  62 W6        30.12S
SPARTA         CLOUDY    58  51  77 W8        30.12R
VIROQUA        CLOUDY    55  52  88 NW10      30.13S
BOSCOBEL       CLOUDY    62  49  62 W5        30.13S
PRAIRIE DU CHI CLOUDY    60  47  62 W10G18    30.14S
PLATTEVILLE    PTSUNNY   62  51  67 W14G20    30.14S
$$

WIZ056-057-062-063-064-067-068-251700-
SOUTH CENTRAL WISCONSIN

CITY           SKY/WX    TMP DP  RH WIND       PRES   REMARKS
REEDSBURG      CLOUDY    58  49  71 W14       30.10S
BARABOO/DELLS  CLOUDY    59  48  67 NW8       30.10S
LONE ROCK      NOT AVBL
MINERAL POINT  CLOUDY    63  54  72 NW9       30.12F
MADISON        PTSUNNY   61  50  67 W13G18    30.09S
MIDDLETON      CLOUDY    63  52  67 NW13G18   30.10S
WATERTOWN      PTSUNNY   63  52  67 W13       30.08S
MONROE         MOSUNNY   63  48  59 W13G20    30.12S
JANESVILLE     PTSUNNY   66  52  59 W17       30.10S
$$

WIZ051-052-058>065-066-070>072-251700-
SOUTHEAST WISCONSIN

CITY           SKY/WX    TMP DP  RH WIND       PRES   REMARKS
MILWAUKEE      PTSUNNY   68  49  50 W18       30.06S
WAUKESHA       MOSUNNY   61  48  63 W16G23    30.08S
MILWAUKEE/TIMM PTSUNNY   64  45  48 W20G25    30.06S
RACINE         MOSUNNY   67  49  52 W14G28    30.08S
KENOSHA        MOSUNNY   66  49  54 W16G26    30.08S
FOND DU LAC    MOSUNNY   65  50  58 W15G21    30.04S
SHEBOYGAN      PTSUNNY   65  53  65 NW15G22   30.02R
WEST BEND      PTSUNNY   63  50  63 W14G25    30.04S
JUNEAU         PTSUNNY   61  50  68 W13G18    30.08S
$$

LSZ147-162-251700-
LAKE SUPERIOR

STATION/POSITION TIME  TEMP    WIND        PRES    WAVE
                       AIR SEA DIR/SP/G            HT/PER
                 (UTC) (F)     (DEG/KT/KT) (MB)    (FT/S)
W MID LAKE BUOY  1450   45 39  300/  6/  8 1016.9R   0
DEVILS ISLAND    1500   52     230/  5/  6 1017.0R
SAXON HARBOR     1540   57     330/  5/  6 1016.6S
$$

LMZ867-665-643>646-251700-
LAKE MICHIGAN

STATION/POSITION TIME  TEMP    WIND        PRES    WAVE
                       AIR SEA DIR/SP/G            HT/PER
                 (UTC) (F)     (DEG/KT/KT) (MB)    (FT/S)
CHAMBERS ISLAND  1540   61     280/  3/  7 1014.9S
S GREEN BAY BUOY 1530   60     290/  8/ 10 1015.5F
N MID LAKE BUOY  1450   56 57  330/  6/  8 1015.3R   1/ 3
NORTHPORT PIER   1540   59     310/  7/ 12 1014.9S
KEWAUNEE LAKESHO 1530   60     300/  9/ 12 1015.4R
SHEBOYGAN LAKESH 1500   62     300/ 16/ 21 1016.0R
PORT WASHINGTON  1530   67     300/  8/ 17 1017.6S
ATWATER BUOY     1409   61 58  250/ 14/ 17 1017.6R
MILWAUKEE LAKESH 1530   64     290/ 13/ 16   N/A
S MID LAKE BUOY  1450   59 61  290/ 16/ 17 1018.0R   3/ 5
KENOSHA   LAKESH 1500   63     260/ 10/ 19 1018.3
$$

TC  - TEMPERATURE IN CELSIUS
VSB - VISIBILITY IN STATUTE MILES
WCI - WIND CHILL INDEX
HX  - HEAT INDEX




USA.gov is the U.S. government's official web portal to all federal, state and local government web resources and services.